Skip Page Navigation
NASA JPL Caltech
NASA Logo - Jet Propulsion Laboratory + View the NASA Portal
+ Center for Near-Earth Object Studies
JPL Home Earth Solar System Stars & Galaxies Technology
JPL Solar System Dynamics
BODIES ORBITS EPHEMERIDES TOOLS PHYSICAL DATA DISCOVERY FAQ SITE MAP
JPL Small-Body Database Browser
Search: [ help ]  
173517 (2000 UH105)
Classification: Main-belt Asteroid          SPK-ID: 2173517
Ephemeris | Orbit Diagram | Orbital Elements | Mission Design | Physical Parameters | Discovery Circumstances ]

[ show orbit diagram ]
Orbital Elements at Epoch 2459000.5 (2020-May-31.0) TDB
Reference: JPL 13 (heliocentric ecliptic J2000)
 Element Value Uncertainty (1-sigma)   Units 
e .09345244722872817 4.8283e-08  
a 2.232487422098016 1.4365e-08 au
q 2.023856009095602 1.0719e-07 au
i 6.362353054769671 4.9478e-06 deg
node 98.91721760151106 5.3767e-05 deg
peri 303.7004566603897 6.5707e-05 deg
M 301.090580242396 4.206e-05 deg
tp 2459199.872016879002
(2020-Dec-16.37201688)
0.00014361 TDB
period 1218.377746237705
3.34
1.1759e-05
3.219e-08
d
yr
n .2954748649272884 2.8518e-09 deg/d
Q 2.44111883510043 1.5707e-08 au
  Orbit Determination Parameters
   # obs. used (total)      374  
   data-arc span      6797 days (18.61 yr)  
   first obs. used      2000-09-30  
   last obs. used      2019-05-11  
   planetary ephem.      DE431  
   SB-pert. ephem.      SB431-N16  
   condition code      0  
   norm. resid. RMS      .58168  
   source      ORB  
   producer      Otto Matic  
   solution date      2019-May-30 07:42:08  

Additional Information
 Earth MOID = 1.04109 au 
 Jupiter MOID = 2.85884 au 
 T_jup = 3.627 
[ show covariance matrix ]

Ephemeris | Orbit Diagram | Orbital Elements | Mission Design | Physical Parameters | Discovery Circumstances ]

Physical Parameter Table
Parameter Symbol Value Units Sigma Reference Notes
absolute magnitude H 16.5   n/a MPO433114  

173517 (2000 UH105)          Discovered 2000-Oct-29 by LINEAR at Socorro
Reference: 20080122/Numbers.arcLast Updated: 2008-01-28

Alternate Designations
 2000 UH105 = 2000 UP113 
Ephemeris | Orbit Diagram | Orbital Elements | Mission Design | Physical Parameters | Discovery Circumstances ]
ABOUT SSD CREDITS/AWARDS PRIVACY/COPYRIGHT GLOSSARY LINKS
FirstGov 2020-Sep-19 17:10 UT
(server date/time)  
NASA Home Page
Site Manager:   Ryan S. Park
Webmaster  Alan B. Chamberlin